Weather History for Fort Myers, FL

Change the Weather History Date:

Monday, November 26, 2012

  Actual Average Record
Temperature  
Mean Temperature 66 °F 70 °F  
Max Temperature 81 °F 80 °F 89 °F (1948)
Min Temperature 51 °F 60 °F 34 °F (1950)
Degree Days  
Heating Degree Days 0 1  
Month to date heating degree days 12 11  
Since 1 July heating degree days 15 13  
Cooling Degree Days 1 6  
Month to date cooling degree days 95 194  
Year to date cooling degree days 4195 3842  
Growing Degree Days 16 (Base 50)    
Moisture  
Dew Point 54 °F    
Average Humidity 70    
Maximum Humidity 96    
Minimum Humidity 39    
Precipitation  
Precipitation 0.00 in 0.05 in 0.71 in (1921)
Month to date precipitation 0.66 1.76  
Year to date precipitation 47.43 54.02  
Sea Level Pressure  
Sea Level Pressure 30.16 in    
Wind  
Wind Speed 2 mph (ESE)    
Max Wind Speed 10 mph    
Max Gust Speed 17 mph    
Visibility 10 miles    
Events      
T = Trace of Precipitation, MM = Missing Value Source: NWS Daily Summary

Daily Weather History Graph

Daily Weather History Graph

Search for Another Location

Airport:

Trip Planner

Search our weather history database for the weather conditions in past years. The results will help you decide how hot, cold, wet, or windy it might be!

Date:

Astronomy

Nov. 26, 2012 Rise Set
Actual Time 6:55 AM EST 5:34 PM EST
Civil Twilight 6:30 AM EST 5:59 PM EST
Nautical Twilight 6:01 AM EST 6:27 PM EST
Astronomical Twilight 5:33 AM EST 6:55 PM EST
Moon 4:21 PM EST (11/26) 5:10 AM EST (11/26)
Length of Visible Light 11h 29m
Length of Day
10h 39m
Waxing Gibbous, 97% of the Moon is Illuminated
Nov 26
Waxing Gibbous
Nov 28
Full
Dec 6
Last Quarter
Dec 13
New
Dec 20
First Quarter

Hourly Weather History & Observations

Time (EST) Temp. Heat Index Dew Point Humidity Pressure Visibility Wind Dir Wind Speed Gust Speed Precip Events Conditions
12:53 AM 53.1 °F - 46.0 °F 77% 30.14 in 10.0 mi Calm Calm - N/A   Clear
1:53 AM 52.0 °F - 46.9 °F 83% 30.14 in 10.0 mi Calm Calm - N/A   Clear
2:53 AM 52.0 °F - 48.0 °F 86% 30.13 in 10.0 mi Calm Calm - N/A   Clear
3:53 AM 51.1 °F - 48.0 °F 89% 30.14 in 10.0 mi NE 3.5 mph - N/A   Clear
4:53 AM 51.1 °F - 48.9 °F 92% 30.14 in 10.0 mi Calm Calm - N/A   Clear
5:53 AM 52.0 °F - 48.9 °F 89% 30.15 in 10.0 mi Calm Calm - N/A   Clear
6:53 AM 52.0 °F - 50.0 °F 93% 30.16 in 10.0 mi ENE 3.5 mph - N/A   Clear
7:53 AM 55.9 °F - 52.0 °F 87% 30.18 in 10.0 mi East 3.5 mph - N/A   Clear
8:53 AM 62.1 °F - 55.0 °F 78% 30.20 in 10.0 mi Calm Calm - N/A   Clear
9:53 AM 70.0 °F - 55.9 °F 61% 30.21 in 10.0 mi Calm Calm - N/A   Clear
10:53 AM 75.9 °F - 57.9 °F 54% 30.20 in 10.0 mi ESE 5.8 mph - N/A   Clear
11:53 AM 78.1 °F - 57.9 °F 50% 30.18 in 10.0 mi SE 6.9 mph - N/A   Clear
12:53 PM 78.1 °F - 57.0 °F 48% 30.16 in 10.0 mi Variable 4.6 mph - N/A   Partly Cloudy
1:53 PM 79.0 °F - 55.0 °F 44% 30.14 in 10.0 mi SE 4.6 mph - N/A   Partly Cloudy
2:53 PM 80.1 °F 80.0 °F 54.0 °F 40% 30.12 in 10.0 mi Variable 4.6 mph - N/A   Clear
3:53 PM 80.1 °F 80.0 °F 54.0 °F 40% 30.11 in 10.0 mi Calm Calm - N/A   Clear
4:53 PM 75.9 °F - 57.0 °F 52% 30.12 in 10.0 mi WSW 8.1 mph - N/A   Scattered Clouds
5:53 PM 72.0 °F - 57.0 °F 59% 30.14 in 10.0 mi SW 3.5 mph - N/A   Clear
6:53 PM 70.0 °F - 57.9 °F 65% 30.15 in 10.0 mi Calm Calm - N/A   Clear
7:53 PM 68.0 °F - 57.9 °F 70% 30.17 in 10.0 mi Calm Calm - N/A   Clear
8:53 PM 64.9 °F - 59.0 °F 81% 30.18 in 10.0 mi Calm Calm - N/A   Partly Cloudy
9:53 PM 64.0 °F - 59.0 °F 84% 30.19 in 10.0 mi Calm Calm - N/A   Mostly Cloudy
10:53 PM 63.0 °F - 57.9 °F 84% 30.19 in 10.0 mi Calm Calm - N/A   Scattered Clouds
11:53 PM 64.9 °F - 59.0 °F 81% 30.19 in 10.0 mi Calm Calm - N/A   Mostly Cloudy